Weather in Prilep

North Macedonia     41°20′46″N   21°33′12″E
temp.,
°C
wind,
m/s
gust,
m/s
humid.,
%
clouds,
%
prec.,
mm/h
press.,
hPa
HPBL,
m
27 november, sat
sat2701:00+4s23904 0.0 100635
04:00+5ssw22875 0.0 100621
07:00+4ssw128654 0.0 100716
10:00+10s2467100 0.0 1006302
13:00+12s5759100 0.0 1004857
16:00+10sse3373100 0.0 100434
19:00+8se2278100 0.0 100429
22:00+7sse228594 0.0 100520
28 november, sun
sun2801:00+6s118622 0.0 100413
04:00+7ssw118694 0.1 100520
07:00+7s238466 0.1 100562
10:00+10s4669100 0.0 1005493
13:00+12s675794 0.0 10031085
16:00+10s51066100 0.0 1001555
19:00+9s51084100 0.4 999550
22:00+8ssw1489100 4.1 1000232
29 november, mon
mon2901:00+8sw139385 5.8 998190
04:00+7nw129547 2.9 99871
07:00+6wnw239054 3.4 99946
10:00+8nw2373100 0.9 1000356
13:00+7s2370100 1.9 999626
16:00+6se1287100 0.7 1001147
19:00+5s2389100 2.5 1002132
22:00+4ssw2489100 1.2 1001172
30 november, tue
tue3001:00+5wsw1291100 1.9 1001239
04:00+4w1191100 0.1 100215
07:00+3n239597 0.8 1005316
10:000ne3489100 0.6 1010396
13:00+1ne2473100 1.4 1012864
16:000nne2492100 0.8 1016346
19:00−1n1289100 1.1 101956
22:00−3n22915 0.0 102122
1 december, wed
wed101:00−4wnw11916 0.0 102211
04:00−4wsw118967 0.0 102320
07:00−4wsw11875 0.0 102354
10:00+1sw22641 0.0 1023303
13:00+4sw23562 0.0 1020517
16:00+1sw12761 0.0 102012
19:000sw11875 0.0 102014
22:00−1sw11895 0.0 102015